Lapse_Rate
5.8 6.5 6.5 6.5 6.5 6.5 6.5 6.5 6.5 6.5 6.5 6.5 6.5 6.5 6.5 6.0 5.4 6.1 5.5 4.1 2.5 2.9 3.0 2.5 2.5 2.0 1.4 1.6 2.1 2.7 2.5 2.6 1.8 1.9 2.3 1.9 1.8 2.1 2.7 2.9 3.3 3.0 3.0 3.5
6.5 6.5 6.5 6.5 6.5 6.5 6.5 6.5 6.5 6.5 6.5 6.5 6.5 6.5 6.5 6.5 6.3 5.1 5.3 4.7 2.8 1.9 2.9 2.8 2.4 1.8 1.6 1.9 2.1 2.7 3.0 2.5 2.1 2.8 2.8 3.0 3.5 4.0 4.2 3.7 4.0 3.9 3.4 3.3
6.5 6.5 6.5 6.5 6.5 6.5 6.5 6.5 6.5 6.5 6.5 6.5 6.5 6.5 6.5 6.5 5.6 3.3 2.7 2.5 2.3 1.8 2.9 3.0 2.5 2.2 1.4 2.0 3.1 3.3 3.4 3.4 3.2 3.5 3.4 3.3 3.6 3.5 2.6 3.0 3.1 3.1 3.6 3.5
6.5 6.4 6.5 6.5 6.5 6.5 6.5 6.5 6.5 6.5 6.5 6.5 6.5 6.5 6.5 6.5 6.5 6.5 4.9 3.6 2.8 2.4 2.7 2.9 2.5 2.1 2.1 3.0 3.2 3.3 3.4 3.6 3.5 3.4 3.3 3.8 4.8 4.7 4.3 4.4 4.2 4.1 4.6 4.2
6.5 6.5 6.5 6.5 6.5 6.5 6.5 6.5 6.5 6.5 6.5 6.5 6.5 6.5 6.5 6.5 6.5 6.5 6.4 4.5 3.5 2.7 2.6 2.6 2.3 2.7 2.5 2.9 3.3 3.5 3.4 3.5 4.0 4.1 3.8 4.0 4.0 3.8 5.2 5.3 4.9 5.0 5.2 5.7
6.5 5.7 6.5 6.5 6.5 6.5 6.5 6.5 6.5 6.5 6.5 6.5 6.5 6.5 6.5 6.5 6.5 6.5 6.3 5.0 3.8 2.9 2.0 1.8 2.3 2.2 2.9 3.1 3.5 3.6 3.6 3.7 4.1 4.2 4.4 4.5 4.8 5.2 5.4 5.0 5.1 4.7 4.9 5.3
6.5 6.5 6.5 6.4 6.5 6.5 6.5 6.5 6.5 6.5 6.5 6.5 6.5 6.5 6.5 6.5 6.5 6.5 6.5 5.2 4.2 3.3 2.6 2.2 2.7 3.0 3.3 3.6 4.1 4.0 4.0 4.0 4.2 4.3 4.2 5.2 5.4 5.2 5.6 5.8 5.7 5.7 5.8 5.7
6.5 6.5 6.5 6.5 6.5 6.5 6.5 6.5 6.5 6.5 6.5 6.5 6.5 6.5 6.5 6.5 6.1 5.6 5.3 5.0 4.5 3.9 3.1 2.3 2.6 3.0 3.5 4.0 4.5 4.7 5.1 5.4 5.7 5.3 5.1 5.2 5.0 5.4 5.8 5.6 5.6 6.0 6.1 6.0
6.5 6.5 6.5 6.5 6.5 6.5 6.5 6.5 6.5 6.5 6.5 6.5 6.5 6.5 6.5 6.5 6.5 6.3 6.2 5.6 4.8 3.2 2.4 2.0 3.3 4.2 4.3 4.5 4.8 5.1 5.6 6.3 6.1 6.3 5.8 5.5 5.2 4.9 5.2 4.8 5.4 5.4 5.8 6.2
6.5 6.5 6.5 6.5 6.3 6.5 6.5 6.5 6.5 6.5 6.5 6.5 6.5 6.5 6.5 6.5 6.5 6.5 6.5 6.7 5.7 4.3 3.1 3.1 4.3 4.7 4.9 4.9 5.1 5.2 6.8 6.4 6.0 5.6 5.6 5.6 5.3 5.1 4.5 4.5 5.2 5.1 5.5 6.0
6.5 6.5 6.5 6.5 6.5 6.5 6.5 6.5 6.5 6.5 6.5 6.5 6.5 6.5 6.5 6.5 6.5 6.5 6.6 6.9 6.4 5.7 4.6 4.0 4.8 5.1 5.2 5.0 5.4 6.0 6.3 6.5 6.5 5.4 5.7 5.5 5.2 4.8 4.4 4.3 5.0 4.8 5.4 5.7
6.5 6.5 6.5 6.5 6.5 6.5 6.5 6.5 6.5 6.5 6.5 6.5 6.5 6.5 6.5 6.5 6.5 6.7 6.8 7.1 7.2 7.0 6.6 5.7 5.2 4.9 4.5 5.1 5.6 6.2 5.9 5.5 5.3 5.5 5.8 5.3 4.9 4.5 3.7 4.2 4.5 5.2 5.1 5.4
6.5 6.5 6.5 6.5 6.5 6.5 6.5 6.5 6.5 6.5 6.5 6.5 6.5 6.5 6.5 6.6 6.6 6.9 6.9 7.1 7.3 7.0 6.1 5.2 5.3 5.2 5.1 5.2 6.1 6.1 5.9 5.3 5.4 5.6 5.5 5.2 5.3 4.6 4.2 4.6 4.5 4.9 4.9 5.3
6.2 6.5 6.5 6.5 6.5 6.5 6.5 6.5 6.5 6.5 6.5 6.5 6.5 6.5 6.5 6.5 6.5 6.7 7.0 7.2 7.5 7.7 7.7 6.5 4.8 4.5 6.5 5.7 5.6 6.1 5.8 5.3 5.3 4.7 5.0 5.2 5.3 5.2 4.5 4.6 4.5 4.9 5.7 5.9
6.5 6.5 6.5 6.5 6.5 6.5 6.5 6.5 6.5 6.5 6.5 6.5 6.5 6.5 6.5 6.5 6.5 6.8 7.1 7.4 7.5 7.8 8.1 8.1 6.3 5.4 4.6 5.5 5.2 6.0 5.5 5.6 5.2 5.3 5.2 4.9 4.7 4.9 4.8 4.9 4.8 5.1 5.6 6.1
6.5 6.5 6.5 6.5 6.5 6.5 6.5 6.5 6.5 6.5 6.5 6.5 6.5 6.5 6.5 6.9 7.0 6.9 7.1 7.2 7.2 7.8 8.1 8.4 8.2 5.5 4.8 4.0 5.2 5.2 5.2 5.2 5.4 5.5 4.6 4.3 4.3 4.6 4.8 5.1 5.2 5.2 5.6 6.0
6.5 6.5 6.5 6.5 6.5 6.5 6.5 6.5 6.5 6.5 6.5 6.5 6.5 6.5 6.6 6.5 6.7 6.9 7.1 7.3 7.3 7.4 8.2 8.5 8.0 7.8 4.8 4.4 5.4 4.7 5.1 5.1 5.0 4.8 4.8 4.4 4.1 3.7 4.4 5.2 5.3 5.4 5.5 5.9
6.5 6.5 6.5 6.5 6.5 6.5 6.5 6.5 6.5 6.5 6.5 6.5 6.5 6.5 6.6 6.8 7.3 7.0 7.8 7.5 7.6 7.9 8.3 8.7 8.2 6.7 6.3 4.0 3.7 4.7 5.1 4.9 4.9 4.7 4.3 3.8 3.8 3.3 3.6 4.2 5.3 5.3 5.5 5.6
6.3 6.5 6.5 6.5 6.5 6.5 6.5 6.5 6.5 6.5 6.5 6.5 6.5 6.6 7.0 7.5 7.4 6.9 7.8 7.7 8.0 8.1 8.1 8.9 8.3 7.1 7.2 4.6 3.5 4.7 5.3 4.4 4.8 4.9 4.4 4.1 3.2 3.0 3.0 3.2 3.5 4.9 4.8 4.4
6.5 6.5 6.5 6.5 6.5 6.5 6.5 6.5 7.0 6.7 6.5 6.8 6.9 6.7 6.8 7.2 6.5 6.5 7.9 7.8 7.7 7.8 7.0 7.4 7.0 7.4 6.9 6.7 3.8 4.9 6.0 4.5 4.1 4.1 4.1 3.8 3.6 3.0 2.5 2.8 2.8 3.1 3.7 3.5
6.5 6.5 6.5 6.5 6.5 6.5 6.5 6.8 6.6 6.5 6.5 7.1 7.2 7.2 7.1 6.6 7.1 8.1 8.5 8.2 7.8 8.2 6.8 6.7 6.3 6.6 7.4 7.5 6.5 4.1 5.9 5.0 4.0 3.9 3.8 3.7 3.2 3.3 3.0 2.6 3.1 3.0 3.1 3.4
6.5 6.5 6.5 6.5 6.5 6.5 6.9 6.6 6.5 6.5 7.3 7.4 7.4 7.5 7.4 7.8 8.1 8.2 8.5 8.4 7.9 6.5 5.9 5.7 5.7 5.2 4.6 5.4 7.4 5.1 4.3 4.7 4.5 3.8 3.9 3.6 3.1 3.5 3.2 2.9 3.0 3.5 3.2 2.9
6.5 6.5 6.5 6.5 6.5 6.8 7.3 7.1 7.7 7.7 7.4 7.5 7.6 7.9 7.9 7.8 7.8 8.2 8.3 7.9 7.8 7.5 7.0 6.9 6.3 5.1 4.4 4.9 3.5 6.0 5.1 4.5 4.6 3.8 3.5 3.5 2.9 3.0 3.4 3.3 3.2 3.2 3.4 3.4
6.5 6.5 6.5 6.5 6.6 6.8 7.2 7.4 7.6 7.6 7.4 7.6 7.8 7.9 7.9 7.8 7.9 7.7 8.0 7.8 7.3 6.7 6.9 6.7 6.2 5.0 3.6 5.6 3.6 3.3 4.3 4.8 3.9 3.8 3.0 3.5 3.0 2.8 3.2 3.2 3.5 3.6 3.6 3.5
6.4 6.4 6.5 6.5 6.5 6.8 7.4 7.0 7.7 7.4 7.9 7.8 8.1 8.0 7.8 7.6 7.8 7.4 7.4 7.0 7.0 6.9 6.6 6.5 6.3 5.5 4.8 5.0 4.5 3.0 3.7 4.6 4.0 3.0 2.8 2.7 3.1 3.1 3.0 3.1 3.4 3.2 3.3 3.5
6.6 6.4 6.5 6.5 6.7 6.9 7.0 7.5 7.6 7.6 7.6 7.8 7.6 7.5 7.3 7.4 7.8 7.7 6.9 6.4 6.6 6.7 5.7 5.9 5.6 5.9 5.3 4.8 4.4 2.9 3.0 4.3 4.0 3.7 2.8 2.3 2.5 2.7 2.7 2.4 2.7 4.0 3.9 3.9
Wind_Speed
3 3 5 6 6 1 2 2 5 5 5 3 8 12 11 14 5 13 13 13 12 13 8 7 6 4 4 5 4 5 6 5 2 2 2 2 4 3 5 5 10 11 11 13
4 4 4 2 3 3 3 3 6 6 3 6 7 17 10 10 13 8 12 13 12 5 7 6 5 4 4 5 6 7 7 5 5 4 2 2 3 4 4 4 8 13 13 15
3 1 1 1 2 3 4 5 5 8 3 3 3 10 4 4 5 6 9 7 5 10 10 7 6 5 3 4 5 6 6 6 7 8 4 3 2 1 2 5 6 9 12 13
5 3 2 2 4 6 3 8 3 2 2 4 0 8 16 4 6 6 9 7 7 8 5 4 4 4 3 3 3 5 6 7 6 7 7 8 6 7 6 7 6 9 14 12
7 3 4 4 6 6 7 2 4 2 3 3 3 2 9 1 8 11 6 7 6 5 5 5 6 3 1 3 4 3 4 6 7 7 9 8 8 7 7 7 11 11 10 11
7 3 4 7 3 6 3 2 4 3 2 4 7 7 7 4 5 5 3 1 6 6 6 5 5 3 2 3 3 3 4 6 7 8 10 12 11 10 8 8 8 8 6 7
4 5 3 2 2 1 3 4 3 3 1 6 3 3 8 8 6 5 5 5 4 4 4 5 5 5 3 4 5 4 4 7 7 8 10 12 13 11 12 11 8 9 7 7
2 7 3 3 3 2 5 7 4 6 5 5 4 6 6 5 5 4 4 4 5 5 4 5 6 5 4 4 4 4 4 6 6 8 9 10 11 7 8 9 7 7 7 8
5 6 4 2 2 3 2 4 3 4 1 1 7 7 8 2 4 7 8 8 9 10 9 8 5 4 5 5 5 4 5 7 8 9 7 8 8 9 8 8 7 7 8 8
5 8 3 4 4 1 3 2 4 1 5 15 5 4 5 2 2 8 12 13 13 12 12 9 6 6 5 6 6 6 4 7 9 9 6 7 8 8 8 6 8 8 7 9
5 1 8 5 2 5 5 6 3 2 4 12 16 8 5 4 6 8 9 11 12 13 12 10 9 6 6 6 6 5 6 8 9 8 7 7 7 8 7 6 6 6 3 4
3 4 8 13 14 11 5 7 4 4 9 4 4 9 4 6 7 9 10 11 12 13 13 12 11 11 9 9 10 8 8 10 9 9 9 6 6 6 7 8 8 5 4 2
3 2 6 14 5 6 5 12 11 15 10 6 11 8 5 7 10 11 12 12 12 14 15 14 15 13 13 12 12 10 8 8 9 9 5 5 5 5 8 8 7 7 6 3
5 2 3 8 14 15 17 21 27 11 10 12 14 15 11 10 10 13 14 12 13 14 16 16 16 17 16 14 13 11 9 8 8 7 6 6 4 5 5 7 8 7 4 5
3 4 7 12 17 20 19 22 20 21 18 16 22 21 4 6 8 9 12 15 15 17 18 18 17 17 18 17 15 13 10 7 7 6 6 6 5 3 2 5 7 8 5 5
1 4 5 10 16 14 17 13 16 17 17 13 12 1 15 14 12 12 14 15 17 19 19 19 19 19 19 19 17 14 12 8 6 7 8 7 7 6 3 1 6 8 6 6
2 2 5 4 7 12 2 9 8 6 15 13 10 8 15 18 18 11 14 17 17 19 19 19 19 18 18 18 17 15 13 7 7 7 8 8 8 8 6 3 5 7 6 5
3 2 3 4 6 3 2 8 7 8 11 13 12 13 14 16 20 3 11 17 18 19 20 18 16 18 18 18 17 15 10 8 9 9 10 9 8 8 7 7 3 6 4 4
5 1 3 2 4 4 2 8 8 6 4 14 15 16 17 20 16 3 15 20 19 18 16 15 16 17 18 18 18 16 8 7 7 9 8 9 8 8 9 9 8 5 7 7
5 3 2 2 4 4 2 13 16 7 5 16 15 16 17 17 11 8 20 22 21 19 16 16 18 16 16 17 16 14 7 6 8 8 7 8 8 8 9 8 9 8 9 10
3 2 3 4 3 4 8 15 14 3 6 17 17 16 16 11 9 21 22 20 19 18 19 17 16 14 15 16 15 13 10 7 7 5 6 7 7 7 8 10 9 9 11 11
1 2 2 1 2 5 12 4 5 5 11 13 13 15 18 17 18 19 20 20 20 20 19 17 15 14 16 15 14 14 11 12 8 6 5 6 7 6 6 10 9 9 10 12
1 3 2 2 3 1 6 5 4 7 10 12 14 16 16 18 20 20 20 20 18 18 16 14 13 15 13 12 14 13 13 10 7 6 5 6 7 7 7 8 9 8 8 8
2 4 2 5 2 10 13 2 12 13 12 13 14 16 17 19 20 21 19 18 17 16 16 14 14 13 14 12 13 13 12 10 7 4 6 5 7 7 8 7 7 7 7 7
2 4 4 4 3 12 5 13 13 15 14 15 15 15 17 17 18 19 19 19 17 17 15 13 13 13 13 12 12 11 13 10 4 4 5 5 6 8 10 10 7 8 8 8
3 2 2 3 7 5 13 14 17 14 17 17 17 17 17 16 18 18 17 18 17 16 16 14 14 13 12 11 11 11 12 9 3 3 3 3 4 6 8 10 12 23 22 24
Wind_Direction
15 60 223 218 206 124 116 198 252 262 249 238 242 262 250 272 241 256 253 255 248 252 249 223 209 238 277 274 279 295 291 290 213 201 188 207 231 212 221 216 241 251 241 237
9 245 241 213 141 178 174 229 253 272 256 192 276 274 250 241 259 250 257 254 252 231 206 200 203 208 228 271 282 288 276 252 220 211 206 207 219 228 231 222 239 239 248 241
212 253 63 294 226 181 209 204 224 234 321 247 337 282 248 248 231 249 240 246 246 208 194 196 200 208 217 241 278 284 278 247 221 223 216 213 231 280 281 250 258 242 240 247
232 271 234 210 252 165 259 226 241 270 14 261 297 288 294 279 279 261 267 233 225 201 203 206 204 225 183 255 264 268 265 245 230 212 218 219 228 242 241 253 244 244 234 233
256 229 216 215 221 165 234 141 180 188 207 323 192 185 277 278 285 290 289 260 210 190 210 224 246 258 317 289 281 266 252 241 238 225 219 224 232 239 256 253 245 241 237 227
248 308 230 213 220 190 131 114 53 57 103 248 193 180 278 269 232 301 312 319 185 202 231 258 279 309 316 318 300 286 274 259 248 241 232 232 231 245 252 240 244 239 229 228
310 234 276 170 204 95 118 75 313 304 216 239 150 169 248 271 252 257 298 294 202 226 265 288 304 314 329 334 320 310 287 286 261 251 236 232 235 243 253 256 240 230 231 227
329 320 206 173 218 219 184 167 177 252 232 248 161 235 248 227 330 353 33 98 65 21 342 326 301 296 315 320 323 321 302 286 258 238 237 230 234 242 254 248 239 237 231 230
337 271 311 229 282 150 188 192 203 242 103 280 256 277 296 45 69 46 29 22 8 1 345 324 318 315 318 327 319 310 291 280 268 252 246 234 232 237 247 238 244 250 252 243
348 296 272 324 351 356 208 290 277 290 254 258 250 242 236 348 6 14 9 6 354 350 347 339 347 344 343 330 300 286 270 277 283 276 246 248 234 234 237 231 243 242 251 243
8 297 281 342 210 328 350 314 293 251 227 263 265 259 15 55 8 351 356 353 348 347 343 338 334 340 323 311 303 296 304 306 294 277 257 243 242 232 223 221 229 223 207 245
335 288 280 283 288 283 257 305 317 268 282 251 260 255 21 52 32 16 4 3 360 2 0 4 357 349 0 346 334 321 322 315 307 290 281 252 239 222 209 214 215 191 196 250
336 317 314 303 308 44 7 327 321 328 276 250 255 252 51 41 37 24 16 5 5 9 6 2 2 359 346 352 337 319 312 317 303 295 284 265 257 224 221 211 197 191 185 162
25 356 265 283 300 305 293 292 300 284 283 295 286 312 12 7 30 19 15 14 11 13 11 6 2 354 345 347 335 328 328 329 327 331 339 303 287 268 231 205 189 169 158 124
66 268 264 279 274 275 281 282 290 288 280 255 277 282 3 352 10 19 16 8 12 12 7 5 359 350 339 346 338 333 332 330 344 337 356 353 352 347 301 195 164 152 158 123
263 266 316 286 285 292 296 316 328 308 312 288 248 90 355 349 351 21 19 13 8 360 359 354 353 350 342 337 334 332 319 349 355 7 5 2 7 2 16 146 150 142 153 137
229 264 299 262 322 313 65 338 26 51 28 13 37 360 340 340 346 357 14 9 360 348 344 346 344 340 334 330 327 327 317 344 10 14 16 12 7 15 10 84 118 135 138 145
202 217 264 280 313 4 70 26 1 70 41 23 8 356 345 331 317 305 30 4 349 342 339 336 336 331 331 326 325 325 329 4 13 17 15 18 20 22 27 31 82 108 112 116
195 175 276 281 295 237 324 3 347 353 35 15 357 344 344 340 328 296 5 350 336 330 328 326 325 324 324 331 327 327 330 7 12 19 17 14 23 33 33 35 31 73 84 68
198 183 172 312 293 287 30 320 320 305 209 6 353 340 339 343 343 307 334 330 324 324 325 325 321 323 322 330 332 331 339 10 25 10 14 20 21 35 52 47 45 61 75 71
305 352 187 272 248 279 338 321 310 58 317 336 334 329 326 322 296 302 311 311 314 316 319 321 320 317 317 323 338 336 347 8 6 0 19 33 26 43 54 65 56 63 77 76
270 318 305 307 339 294 358 354 61 279 306 315 319 316 313 307 304 303 306 309 312 313 319 320 315 314 318 330 336 334 351 350 358 355 18 40 40 42 59 71 69 62 73 79
174 357 299 284 315 61 358 116 36 328 305 312 315 313 308 305 304 306 307 306 305 307 308 310 310 312 318 328 328 334 339 347 357 18 6 52 55 44 52 70 71 72 64 71
38 7 271 327 57 334 317 163 332 338 316 310 309 307 306 302 303 303 304 305 304 305 304 306 306 306 308 318 323 321 336 340 358 32 23 39 69 61 58 62 62 74 72 76
317 340 328 273 355 334 146 342 330 318 315 314 309 302 297 299 302 300 300 300 298 297 297 297 294 294 297 308 315 320 328 330 356 29 52 35 77 81 77 65 63 73 58 76
350 336 336 282 332 291 291 313 316 318 319 314 314 311 311 303 300 300 295 294 295 294 291 286 281 279 285 294 306 308 319 320 326 56 83 64 74 90 94 94 81 72 81 81